0 HST 1 20580U 90037B 25304.78556720 .00009322 00000-0 33100-3 0 9994 2 20580 28.4669 197.8810 0001996 121.0910 238.9881 15.27252670753578 0 ISS (ZARYA) 1 25544U 98067A 25304.61768088 .00014957 00000-0 27275-3 0 9990 2 25544 51.6344 351.0134 0004897 1.8672 358.2334 15.49657005536323 0 CXO 1 25867U 99040B 25306.94914393 .00000860 00000-0 00000-0 0 9992 2 25867 52.2511 124.0340 8210183 310.6072 0.2637 0.37806171 16460